Regional Weather Roundup
Issued by NWS Sterling, VA

Home | Current Version | Previous Version | Text Only | Print | Product List | Glossary On
Versions: 1 2 3 4 5 6 7 8 9 10 11 12 13 14 15 16 17 18 19 20 21 22 23 24 25 26 27 28 29 30 31 32 33 34 35 36 37 38 39 40 41 42 43 44 45 46 47 48 49 50
000
ASUS41 KLWX 251110
RWRLWX

REGIONAL WEATHER ROUNDUP
NATIONAL WEATHER SERVICE BALTIMORE MD/WASHINGTON DC
700 AM EDT WED MAY 25 2016

Note: "FAIR" indicates few or no clouds below 12,000 feet
with no significant weather and/or obstructions to visibility.
 TC=TEMPERATURE CELSIUS

 * =Non NWS site. Station does not report precipitation (e.g. rain,
    snow, etc.), thunder, or fog.

DCZ001-MDZ009-015-VAZ040>042-051-053>054-251200-
WASHINGTON METRO

CITY           SKY/WX    TMP DP  RH WIND       PRES   REMARKS
WASHINGTON NAT FAIR      62  59  90 S3        30.14R
DULLES         FAIR      56  53  90 CALM      30.15R
ANDREWS AFB    SUNNY     63  55  75 W3        30.13R
FT BELVOIR     FAIR      54  53  96 CALM      30.14R
QUANTICO       FAIR      60  54  80 NW5       30.15R
COLLEGE PARK*  FAIR      55  52  88 CALM      30.13R
LEESBURG*      FAIR      61  55  82 CALM      30.15R
MANASSAS*      SUNNY     54  54 100 CALM      30.15R

$$

MDZ006>007-011-014-251200-
BALTIMORE METRO

CITY           SKY/WX    TMP DP  RH WIND       PRES   REMARKS
BWI AIRPORT    MOSUNNY   63  52  67 W5        30.12R
MD SCIENCE CTR   N/A     68  50  52 MISG      30.12R
MARTIN STATE   SUNNY     63  57  82 CALM      30.13R
ANNAPOLIS      SUNNY     65  54  67 CALM      30.12R
FORT MEADE*    SUNNY     52  50  93 CALM      30.15R

$$

MDZ012-015-019>023-251200-
MARYLAND EASTERN SHORE

CITY           SKY/WX    TMP DP  RH WIND       PRES   REMARKS
OCEAN CITY     SUNNY     65  56  72 W8        30.12R
SALISBURY      SUNNY     61  58  90 CALM      30.12R
BAY BRIDGE AP* SUNNY     64  54  68 CALM      30.12R
CAMBRIDGE*       N/A     55  54  94 CALM      30.12R
EASTON*        SUNNY     61  61 100 CALM      30.16R

$$

MDZ017>025-251200-
SOUTHERN MARYLAND

CITY           SKY/WX    TMP DP  RH WIND       PRES   REMARKS
PATUXENT RIVER MOSUNNY   62  56  80 W5        30.13R
ST INIGOES     SUNNY     59  58  96 CALM      30.13R
LEONARDTOWN*   SUNNY     59  54  82 W3        30.15R

$$

MDZ003>005-251200-
NORTH CENTRAL MARYLAND

CITY           SKY/WX    TMP DP  RH WIND       PRES   REMARKS
FREDERICK*     SUNNY     55  55 100 CALM      30.17R
HAGERSTOWN APT SUNNY     59  51  75 S6        30.15R
WESTMINSTER*   SUNNY     61  55  82 CALM      30.14R

$$

MDZ501>502-251200-
WESTERN MARYLAND

CITY           SKY/WX    TMP DP  RH WIND       PRES   REMARKS
OAKLAND*       NOT AVBL
CUMBERLAND*    SUNNY     52  52 100 CALM      30.23R

$$

VAZ025>031-251200-
SHENANDOAH VALLEY

CITY           SKY/WX    TMP DP  RH WIND       PRES   REMARKS
WINCHESTER*    FAIR      61  52  72 SW6       30.17R
FRONT ROYAL*   FAIR      57  52  82 S8        30.17R
LURAY*         FAIR      52  52 100 CALM      30.21R
NEW MARKET*    FAIR      52  51  94 SW3       30.21R
STAUNTON*      FAIR      49  48  95 CALM      30.25R
WAYNESBORO*    FAIR      52  49  89 CALM      30.22R

$$

WVZ021-048>050-054>055-251200-
EASTERN WEST VIRGINIA PANHANDLE

CITY           SKY/WX    TMP DP  RH WIND       PRES   REMARKS
MARTINSBURG    FAIR      53  51  93 CALM      30.16R
PETERSBURG*    FAIR      50  50  99 CALM      30.23R FOG

$$

VAZ036>039-050-251200-
CENTRAL FOOTHILLS

CITY           SKY/WX    TMP DP  RH WIND       PRES   REMARKS
CHARLOTTESVILL FAIR      58  52  80 CALM      30.18R
CULPEPER*      FAIR      54  54 100 CALM      30.17R FOG
ORANGE*        FAIR      59  54  82 CALM      30.18R
GORDONSVILLE*  FAIR      56  54  94 SW3       30.16R
WARRENTON*     FAIR      57  52  84 CALM      30.15R

$$

VAZ055>057-251200-
NORTH AND CENTRAL PIEDMONT

CITY           SKY/WX    TMP DP  RH WIND       PRES   REMARKS
FREDERICKSBRG* FAIR      57  57 100 CALM      30.14R
STAFFORD*      FAIR      57  53  85 CALM      30.19R

$$

NCZ024-NYZ072-PAZ021-071-VAZ022-071-251200-
OTHER REGIONAL OBSERVATIONS

CITY           SKY/WX    TMP DP  RH WIND       PRES   REMARKS
NEW YORK CITY  SUNNY     64  50  60 W3        30.08R
PHILADELPHIA   MOSUNNY   61  52  72 SW6       30.10R
PITTSBURGH     CLOUDY    60  49  66 CALM      30.16R
ROANOKE        FAIR      55  52  89 VRB3      30.24R
RICHMOND       FAIR      63  55  75 W5        30.16R
RALEIGH        PTCLDY    61  57  87 CALM      30.21R

$$

ANZ530>537-251200-
MARINE OBSERVATIONS

STATION/POSITION TIME  TEMP    WIND        PRES
                       AIR SEA DIR/SP/G
                 (UTC) (F)     (DEG/KT/KT) (MB)
THOMAS PT LIGHT  1100   67 63  290/ 13/ 14 1021.1R
BALT KEY BRIDGE  1000   64     230/  6/  7 1018.9R
COVE POINT       1000   69     320/  9/ 13 1020.0R
LEWISETTA        1000   64 66  230/  3/  3 1019.5R
SOLOMONS ISLAND  1000   61 63  300/  2/  3   N/A
PINEY POINT      1000          300/  3/  3   N/A

$$




USA.gov is the U.S. government's official web portal to all federal, state and local government web resources and services.